User: anonymous   Login
Location: Caltech
(34.1382°N, 118.1253°W)
Time: 04:53:27
(UTC-07:00)
Language:

Cosmos 1484 Rocket - Orbit

View from above orbital plane
View from above orbital plane
View from above satellite
View from above satellite

Ground track
Ground track

The orbit data is extracted from the following two-line orbital elements,

1 14208U 83075B   15143.16474865  .00001830  00000-0  11802-3 0  9990
2 14208 097.3864 172.6371 0040015 214.2442 145.6206 15.08872335733436
Epoch (UTC): 23 May 2015 03:57:14
Eccentricity: 0.0040015
inclination: 97.3864°
perigee height: 512 km
apogee height: 567 km
right ascension of ascending node: 172.6371°
argument of perigee: 214.2442°
revolutions per day: 15.08872335
mean anomaly at epoch: 145.6206°
orbit number at epoch: 73343

The dashed part of the orbit path shows where the satellite is in the earth's shadow,  

DLR